Location: Croydon
(51.3762°N, 0.0982°W)
Time: 15:38:59
(UTC+01:00)

VELOX 1 - Pass Details

Date: 30 April 2019
Orbit: 629 x 644 km, 98.2° (Epoch: 19 May)

Event Time Altitude Azimuth Distance (km) Brightness Sun altitude
Exits shadow 02:12:45 62° 235° (SW) 714 ? -22.0°
Maximum altitude 02:13:02 64° 257° (WSW) 703 ? -22.0°
Drops below altitude 10° 02:17:24 10° 340° (NNW) 2,023 ? -21.7°
Sets 02:19:38 0° 344° (NNW) 2,937 ? -21.6°
